Voltar ao catálogo

STARLINK-35638

AtivoComunicaçõesVLEO
NORAD 66169·PAYLOAD·🇺🇸 United States

Lançado Oct 25, 2025 de Cape Canaveral Space Force Station

Loading…

Próximas Passagens (próximas 24 horas)

TLE

AtualizadoSource: CelesTrak SupGP

Época: Sep 14, 2026, 20:54 UTC

1 66169C 25240Z   26257.87131944  .00053739  00000+0  15881-2 0  2578
2 66169  53.1580 261.8896 0001273  91.9035 273.0774 15.34357207    10

Acompanhe STARLINK-35638 em tempo real com AllMySat

Download on the App Store